Meath Environmental Platform

Observations for Trim Market St

Time AQI Temp °C Hum % Pres Pa CO μg/m³ H₂S μg/m³ NO μg/m³ NO₂ μg/m³ O₃ μg/m³ SO₂ μg/m³ PM1 μg/m³ PM2.5 μg/m³ PM10 μg/m³
Sunday 12 July 2026
22:15 1 22.1 61 57,792 0 0 0 9.87 22.27 0 2.14 4.48 6.17
22:14 1 22.1 61 57,798 0 0 0 8.88 26.82 0 1.43 3.98 5.49
22:13 1 22.1 61 57,807 0 0 0 8.79 24.83 0 1.43 3.49 5.48
22:12 1 22.1 61 57,818 0 0 0 7.9 26.58 0 2.14 3.99 5.48
22:11 1 22.2 61 57,824 0 0 0 6.98 29 0 1.43 3.5 4.8
22:06 1 22.3 60 57,850 0 0 0 9.61 24.88 0 1.43 3.52 5.47
22:05 1 22.3 60 57,855 0 0.7 0 11.03 27.84 0 1.43 3.53 6.16
22:02 1 22.4 60 57,871 0 0.01 0 13.13 21.58 0 2.14 3.04 4.09
21:57 1 22.5 59 57,893 0 0 0 11.38 21.74 0 1.43 2.57 3.38
21:54 1 22.6 59 57,901 0.07 0.96 0 9.19 26.46 0 2.14 3.59 5.45
21:53 1 22.7 59 57,901 0.94 1.91 0 9.88 23.21 0 0.71 3.09 4.75
21:52 2 22.7 58 57,905 0 0 0 11.29 22.21 0 1.43 4.6 6.83
21:51 2 22.7 58 57,907 0 0 0 8.2 24.65 0 1.43 3.6 5.44
21:50 2 22.7 58 57,909 0 0 0 11.41 27.78 0 0.71 2.6 3.35
21:48 2 22.8 58 57,915 0 0 0 8.82 25.21 0 1.43 4.12 6.13
21:47 2 22.8 58 57,915 0 0 0 9.13 26.11 0 0.71 2.62 3.34
21:45 2 22.9 58 57,917 0 0 0 10.32 28.21 0 0.71 3.13 4.03
21:44 2 22.9 58 57,919 0 0 0 8.74 27.68 0 1.43 3.64 4.73
21:42 2 23 57 57,919 0 0 0 7.93 26.01 0 0.71 2.64 3.32
21:34 2 23.2 57 57,921 0 0 0 7.27 29.79 0 1.43 3.69 6.82